Tracking 29892 objects as of 21-Nov-2024
HD Live streaming from Space Station
objects crossing your sky now

STARLINK-30036

Track STARLINK-30036 now!
10-day predictions
STARLINK-30036 is classified as:


NORAD ID: 56692
Int'l Code: 2023-067E
Perigee: 565.2 km
Apogee: 567.2 km
Inclination: 43.0 °
Period: 95.8 minutes
Semi major axis: 6937 km
RCS: Unknown
Launch date: May 19, 2023
Source: United States (US)
Launch site: AIR FORCE EASTERN TEST RANGE (AFETR)
Your satellite tracking list
Your tracking list is empty




NASA's NSSDC Master Catalog

Two Line Element Set (TLE):
1 56692U 23067E   24325.48340955 -.00002393  00000-0 -16205-3 0  9996
2 56692  43.0040 331.4688 0001443 275.7595  84.3083 15.02552769 83195
Source of the keplerian elements: AFSPC